TimeMDT,TemperatureF,Dew PointF,Humidity,Sea Level PressureIn,VisibilityMPH,Wind Direction,Wind SpeedMPH,Gust SpeedMPH,PrecipitationIn,Events,Conditions,WindDirDegrees,DateUTC
12:15 AM,37.0,11.5,35,30.26,10.0,Calm,Calm,-,N/A,,Clear,0,2013-04-28 06:15:00
12:35 AM,36.7,11.5,35,30.26,10.0,Calm,Calm,-,N/A,,Clear,0,2013-04-28 06:35:00
12:55 AM,38.7,10.0,31,30.26,10.0,Calm,Calm,-,N/A,,Clear,0,2013-04-28 06:55:00
1:15 AM,35.8,11.8,37,30.25,10.0,Calm,Calm,-,N/A,,Clear,0,2013-04-28 07:15:00
1:35 AM,33.8,14.4,45,30.25,10.0,WNW,3.5,-,N/A,,Clear,300,2013-04-28 07:35:00
1:55 AM,36.1,10.9,35,30.24,10.0,Calm,Calm,-,N/A,,Clear,0,2013-04-28 07:55:00
2:15 AM,35.2,12.0,38,30.24,10.0,Calm,Calm,-,N/A,,Clear,0,2013-04-28 08:15:00
2:35 AM,34.9,16.7,48,30.23,10.0,Calm,Calm,-,N/A,,Clear,0,2013-04-28 08:35:00
2:55 AM,32.9,12.9,44,30.23,10.0,NW,3.5,-,N/A,,Clear,320,2013-04-28 08:55:00
3:15 AM,32.2,13.6,46,30.22,10.0,Calm,Calm,-,N/A,,Clear,0,2013-04-28 09:15:00
3:35 AM,32.4,12.0,43,30.22,10.0,Calm,Calm,-,N/A,,Clear,0,2013-04-28 09:35:00
3:55 AM,33.6,10.9,39,30.22,10.0,Calm,Calm,-,N/A,,Clear,0,2013-04-28 09:55:00
4:15 AM,31.1,13.3,48,30.21,10.0,Calm,Calm,-,N/A,,Clear,0,2013-04-28 10:15:00
4:35 AM,31.3,13.6,48,30.22,10.0,Calm,Calm,-,N/A,,Clear,0,2013-04-28 10:35:00
4:55 AM,30.4,12.7,48,30.21,10.0,Calm,Calm,-,N/A,,Clear,0,2013-04-28 10:55:00
5:15 AM,30.6,13.6,50,30.21,10.0,Calm,Calm,-,N/A,,Clear,0,2013-04-28 11:15:00
5:35 AM,30.4,14.2,51,30.21,10.0,Calm,Calm,-,N/A,,Clear,0,2013-04-28 11:35:00
5:55 AM,30.7,13.3,48,30.21,10.0,Calm,Calm,-,N/A,,Clear,0,2013-04-28 11:55:00
6:15 AM,32.0,14.2,48,30.22,10.0,Calm,Calm,-,N/A,,Clear,0,2013-04-28 12:15:00
6:35 AM,31.8,14.5,49,30.22,10.0,Calm,Calm,-,N/A,,Clear,0,2013-04-28 12:35:00
7:15 AM,33.4,14.5,46,30.22,10.0,Calm,Calm,-,N/A,,Clear,0,2013-04-28 13:15:00
7:35 AM,39.2,19.0,44,30.22,10.0,Calm,Calm,-,N/A,,Clear,0,2013-04-28 13:35:00
7:55 AM,44.1,13.8,29,30.22,10.0,Calm,Calm,-,N/A,,Clear,0,2013-04-28 13:55:00
8:15 AM,45.9,15.1,29,30.22,10.0,Calm,Calm,-,N/A,,Clear,0,2013-04-28 14:15:00
8:35 AM,47.8,14.4,26,30.22,10.0,Calm,Calm,-,N/A,,Clear,0,2013-04-28 14:35:00
8:55 AM,50.9,14.0,23,30.22,10.0,Calm,Calm,-,N/A,,Clear,0,2013-04-28 14:55:00
9:15 AM,53.1,14.7,22,30.22,10.0,Calm,Calm,-,N/A,,Clear,0,2013-04-28 15:15:00
9:35 AM,54.1,13.1,20,30.21,10.0,SSW,4.6,-,N/A,,Clear,200,2013-04-28 15:35:00
9:55 AM,56.3,11.8,17,30.21,10.0,SSW,4.6,-,N/A,,Clear,200,2013-04-28 15:55:00
10:15 AM,58.1,9.3,14,30.21,10.0,South,4.6,-,N/A,,Clear,190,2013-04-28 16:15:00
10:35 AM,59.7,10.8,15,30.21,10.0,Calm,Calm,-,N/A,Thunderstorm,Clear,0,2013-04-28 16:35:00
10:55 AM,61.5,8.2,12,30.20,10.0,Calm,Calm,-,N/A,,Clear,0,2013-04-28 16:55:00
11:15 AM,61.5,6.1,11,30.20,10.0,SSW,5.8,-,N/A,,Clear,210,2013-04-28 17:15:00
11:35 AM,62.6,6.6,11,30.19,10.0,Calm,Calm,-,N/A,,Clear,0,2013-04-28 17:35:00
11:55 AM,63.3,6.6,11,30.19,10.0,SSW,8.1,-,N/A,,Clear,200,2013-04-28 17:55:00
12:15 PM,63.7,5.4,10,30.19,10.0,Calm,Calm,-,N/A,,Clear,0,2013-04-28 18:15:00
12:35 PM,64.9,4.6,9,30.18,10.0,WSW,8.1,-,N/A,,Clear,240,2013-04-28 18:35:00
12:55 PM,67.1,7.0,9,30.17,10.0,Calm,Calm,-,N/A,,Clear,0,2013-04-28 18:55:00
1:15 PM,67.3,5.4,9,30.16,10.0,SW,6.9,-,N/A,,Clear,220,2013-04-28 19:15:00
1:35 PM,66.0,4.6,9,30.15,10.0,NNW,3.5,-,N/A,,Clear,330,2013-04-28 19:35:00
1:55 PM,66.6,5.4,9,30.14,10.0,ESE,4.6,-,N/A,,Clear,110,2013-04-28 19:55:00
2:15 PM,68.0,5.4,9,30.14,10.0,SW,10.4,18.4,N/A,Thunderstorm,Thunderstorm,220,2013-04-28 20:15:00
2:35 PM,68.2,6.3,9,30.13,10.0,West,5.8,18.4,N/A,,Clear,270,2013-04-28 20:35:00
2:55 PM,67.8,5.9,9,30.12,10.0,West,10.4,-,N/A,,Clear,260,2013-04-28 20:55:00
3:15 PM,68.4,5.9,9,30.11,10.0,South,8.1,-,N/A,,Clear,190,2013-04-28 21:15:00
3:35 PM,69.6,6.1,8,30.10,10.0,West,10.4,16.1,N/A,,Scattered Clouds,260,2013-04-28 21:35:00
3:55 PM,69.1,5.4,8,30.09,10.0,WSW,12.7,18.4,N/A,,Scattered Clouds,250,2013-04-28 21:55:00
4:15 PM,70.0,6.8,9,30.08,10.0,SW,15.0,19.6,N/A,,Scattered Clouds,230,2013-04-28 22:15:00
4:35 PM,69.6,6.1,8,30.07,10.0,SW,11.5,18.4,N/A,,Clear,230,2013-04-28 22:35:00
4:55 PM,70.2,6.6,8,30.07,10.0,South,12.7,26.5,N/A,,Clear,190,2013-04-28 22:55:00
5:15 PM,69.6,7.2,9,30.07,10.0,SW,13.8,20.7,N/A,,Scattered Clouds,230,2013-04-28 23:15:00
5:35 PM,69.6,7.3,9,30.07,10.0,SSW,11.5,23.0,N/A,,Scattered Clouds,210,2013-04-28 23:35:00
5:55 PM,69.3,8.4,9,30.06,10.0,SW,13.8,18.4,N/A,,Scattered Clouds,230,2013-04-28 23:55:00
6:15 PM,68.5,7.9,9,30.06,10.0,SW,17.3,21.9,N/A,,Clear,230,2013-04-29 00:15:00
6:35 PM,68.0,8.8,10,30.07,10.0,WSW,13.8,18.4,N/A,,Clear,240,2013-04-29 00:35:00
6:55 PM,67.3,8.6,10,30.06,10.0,WSW,13.8,19.6,N/A,,Clear,240,2013-04-29 00:55:00
7:15 PM,66.6,9.0,11,30.07,10.0,WSW,10.4,17.3,N/A,,Clear,250,2013-04-29 01:15:00
7:35 PM,65.3,9.7,11,30.07,10.0,WSW,9.2,-,N/A,,Clear,240,2013-04-29 01:35:00
7:55 PM,63.5,10.8,13,30.07,10.0,WSW,4.6,-,N/A,,Clear,240,2013-04-29 01:55:00
8:15 PM,61.0,12.7,15,30.07,10.0,Calm,Calm,-,N/A,,Clear,0,2013-04-29 02:15:00
8:35 PM,51.8,17.6,26,30.08,10.0,Calm,Calm,-,N/A,,Clear,0,2013-04-29 02:35:00
8:55 PM,51.6,16.5,25,30.09,10.0,ENE,4.6,-,N/A,,Clear,60,2013-04-29 02:55:00
9:15 PM,53.4,15.8,23,30.09,10.0,NE,8.1,-,N/A,,Clear,40,2013-04-29 03:15:00
9:35 PM,51.3,17.1,26,30.09,10.0,Calm,Calm,-,N/A,,Clear,0,2013-04-29 03:35:00
9:55 PM,49.5,16.7,27,30.10,10.0,ENE,3.5,-,N/A,,Clear,70,2013-04-29 03:55:00
10:15 PM,49.5,16.7,27,30.10,10.0,Calm,Calm,-,N/A,,Clear,0,2013-04-29 04:15:00
10:35 PM,48.7,16.3,28,30.10,10.0,NE,4.6,-,N/A,,Clear,50,2013-04-29 04:35:00
10:55 PM,45.3,18.1,34,30.10,10.0,NNE,3.5,-,N/A,,Clear,20,2013-04-29 04:55:00
11:15 PM,42.4,19.2,39,30.10,10.0,Calm,Calm,-,N/A,,Clear,0,2013-04-29 05:15:00
11:35 PM,40.6,20.1,44,30.10,10.0,NNE,3.5,-,N/A,,Clear,30,2013-04-29 05:35:00
11:55 PM,42.4,18.1,38,30.10,10.0,Calm,Calm,-,N/A,,Clear,0,2013-04-29 05:55:00